| time (UTC) | temp C | wind direction | speed KPH | gust KPH | rain 1hr cm | rain 24hr cm | rain mn cm | humidity % | barometer mb |
| 20260906145029 | 28 | 135 | 4.8 | 6.4 | 0.00 | 0.00 | 0.00 | 75 | 1003.8 |
| 20260906143528 | 28 | 135 | 1.6 | 4.8 | 0.00 | 0.00 | 0.00 | 76 | 1003.8 |
| 20260906142024 | 28 | 135 | 0.0 | 3.2 | 0.00 | 0.00 | 0.00 | 76 | 1003.7 |
| 20260906140522 | 28 | 135 | 1.6 | 1.6 | 0.00 | 0.00 | 0.00 | 76 | 1003.6 |
| 20260906135019 | 28 | 135 | 1.6 | 3.2 | 0.00 | 0.00 | 0.00 | 76 | 1003.5 |
| 20260906133518 | 28 | 135 | 1.6 | 4.8 | 0.00 | 0.00 | 0.00 | 75 | 1003.7 |
| 20260906132014 | 28 | 135 | 0.0 | 1.6 | 0.00 | 0.00 | 0.00 | 74 | 1003.7 |
| 20260906130512 | 28 | 135 | 0.0 | 3.2 | 0.00 | 0.00 | 0.00 | 74 | 1003.9 |
| 20260906125009 | 28 | 135 | 4.8 | 4.8 | 0.00 | 0.00 | 0.00 | 74 | 1003.8 |
| 20260906123508 | 28 | 135 | 0.0 | 1.6 | 0.00 | 0.00 | 0.00 | 74 | 1003.9 |
| 20260906122004 | 28 | 135 | 0.0 | 4.8 | 0.00 | 0.00 | 0.00 | 74 | 1004.0 |
| 20260906120502 | 28 | 135 | 0.0 | 1.6 | 0.00 | 0.00 | 0.00 | 74 | 1003.9 |
| 20260906114959 | 28 | 135 | 4.8 | 4.8 | 0.00 | 0.00 | 0.00 | 74 | 1004.0 |
| 20260906113458 | 28 | 135 | 0.0 | 6.4 | 0.00 | 0.00 | 0.00 | 73 | 1003.9 |
| 20260906111954 | 28 | 135 | 1.6 | 6.4 | 0.00 | 0.00 | 0.00 | 73 | 1003.9 |
| 20260906110452 | 28 | 135 | 1.6 | 3.2 | 0.00 | 0.00 | 0.00 | 73 | 1003.9 |
| 20260906104949 | 28 | 135 | 4.8 | 4.8 | 0.00 | 0.00 | 0.00 | 73 | 1004.2 |
| 20260906103448 | 28 | 135 | 3.2 | 8.0 | 0.00 | 0.00 | 0.00 | 72 | 1003.7 |
| 20260906101944 | 28 | 135 | 4.8 | 6.4 | 0.00 | 0.00 | 0.00 | 72 | 1003.8 |
| 20260906100442 | 28 | 135 | 8.0 | 9.7 | 0.00 | 0.00 | 0.00 | 72 | 1003.7 |
| 20260906094939 | 28 | 135 | 8.0 | 9.7 | 0.00 | 0.00 | 0.00 | 72 | 1003.7 |
| 20260906093438 | 28 | 135 | 6.4 | 16.1 | 0.00 | 0.00 | 0.00 | 72 | 1003.9 |
| 20260906091934 | 28 | 87 | 4.8 | 16.1 | 0.00 | 0.00 | 0.00 | 72 | 1003.7 |
| 20260906090432 | 28 | 0 | 6.4 | 12.9 | 0.00 | 0.00 | 0.00 | 72 | 1003.5 |
| 20260906084929 | 28 | 315 | 9.7 | 17.7 | 0.00 | 0.00 | 0.00 | 73 | 1003.6 |
| 20260906083428 | 28 | 180 | 6.4 | 14.5 | 0.00 | 0.00 | 0.00 | 72 | 1003.5 |
| 20260906081924 | 28 | 69 | 20.9 | 20.9 | 0.00 | 0.00 | 0.00 | 73 | 1003.6 |
| 20260906080422 | 28 | 85 | 6.4 | 20.9 | 0.00 | 0.00 | 0.00 | 73 | 1003.7 |
| 20260906074919 | 28 | 90 | 3.2 | 12.9 | 0.00 | 0.00 | 0.00 | 72 | 1003.9 |
| 20260906073418 | 28 | 90 | 8.0 | 20.9 | 0.00 | 0.00 | 0.00 | 72 | 1004.2 |
| 20260906071914 | 28 | 135 | 8.0 | 11.3 | 0.00 | 0.00 | 0.00 | 72 | 1004.0 |
| 20260906070411 | 28 | 135 | 4.8 | 16.1 | 0.00 | 0.00 | 0.00 | 71 | 1003.9 |
| 20260906064909 | 28 | 135 | 4.8 | 12.9 | 0.00 | 0.00 | 0.00 | 71 | 1004.0 |
| 20260906063408 | 28 | 135 | 4.8 | 12.9 | 0.00 | 0.00 | 0.00 | 71 | 1004.0 |
| 20260906061904 | 28 | 135 | 9.7 | 16.1 | 0.00 | 0.00 | 0.00 | 71 | 1004.3 |
| 20260906060402 | 28 | 135 | 9.7 | 12.9 | 0.00 | 0.00 | 0.00 | 70 | 1004.2 |
| 20260906054859 | 28 | 135 | 6.4 | 11.3 | 0.00 | 0.00 | 0.00 | 70 | 1004.4 |
| 20260906053357 | 28 | 121 | 11.3 | 11.3 | 0.00 | 0.00 | 0.00 | 70 | 1004.6 |
| 20260906051854 | 28 | 22 | 6.4 | 17.7 | 0.00 | 0.00 | 0.00 | 69 | 1004.6 |
| 20260906050351 | 28 | 135 | 9.7 | 19.3 | 0.00 | 0.00 | 0.00 | 69 | 1004.7 |
| 20260906044849 | 28 | 135 | 4.8 | 17.7 | 0.00 | 0.00 | 0.00 | 69 | 1004.8 |
| 20260906043347 | 28 | 337 | 4.8 | 12.9 | 0.00 | 0.00 | 0.00 | 68 | 1004.8 |
| 20260906041844 | 28 | 315 | 9.7 | 11.3 | 0.00 | 0.00 | 0.00 | 68 | 1004.8 |
| 20260906040341 | 28 | 0 | 6.4 | 9.7 | 0.00 | 0.00 | 0.00 | 68 | 1005.1 |
| 20260906034839 | 28 | 0 | 1.6 | 6.4 | 0.00 | 0.00 | 0.00 | 69 | 1005.2 |
| 20260906033337 | 28 | 0 | 6.4 | 11.3 | 0.00 | 0.00 | 0.00 | 69 | 1005.3 |
| 20260906031834 | 28 | 0 | 4.8 | 11.3 | 0.00 | 0.00 | 0.00 | 69 | 1005.4 |
| 20260906030331 | 28 | 0 | 8.0 | 8.0 | 0.00 | 0.00 | 0.00 | 69 | 1005.5 |
| 20260906024829 | 28 | 0 | 1.6 | 8.0 | 0.00 | 0.00 | 0.00 | 69 | 1005.8 |
| 20260906023327 | 28 | 0 | 1.6 | 14.5 | 0.00 | 0.00 | 0.00 | 69 | 1005.8 |
| 20260906021824 | 28 | 0 | 4.8 | 11.3 | 0.00 | 0.00 | 0.00 | 70 | 1005.9 |
| 20260906020321 | 28 | 112 | 4.8 | 9.7 | 0.00 | 0.00 | 0.00 | 70 | 1006.1 |
| 20260906014819 | 28 | 112 | 6.4 | 6.4 | 0.00 | 0.00 | 0.00 | 71 | 1006.3 |
| 20260906013317 | 28 | 135 | 9.7 | 11.3 | 0.00 | 0.00 | 0.00 | 71 | 1006.3 |
| 20260906011814 | 28 | 90 | 6.4 | 11.3 | 0.00 | 0.00 | 0.00 | 72 | 1006.5 |
| 20260906010311 | 28 | 135 | 6.4 | 6.4 | 0.00 | 0.00 | 0.00 | 73 | 1006.8 |
| 20260906004809 | 28 | 135 | 1.6 | 8.0 | 0.00 | 0.00 | 0.00 | 73 | 1006.9 |
| 20260906003307 | 28 | 135 | 4.8 | 9.7 | 0.00 | 0.00 | 0.00 | 74 | 1006.9 |
| 20260906001804 | 28 | 135 | 3.2 | 9.7 | 0.00 | 0.00 | 0.00 | 74 | 1006.9 |
| 20260906000303 | 28 | 135 | 4.8 | 9.7 | 0.00 | 0.00 | 0.00 | 74 | 1006.9 |
| 20260905234759 | 28 | 135 | 3.2 | 9.7 | 0.00 | 0.00 | 0.00 | 74 | 1007.1 |
| 20260905233257 | 28 | 135 | 3.2 | 9.7 | 0.00 | 0.00 | 0.00 | 74 | 1007.3 |
| 20260905231754 | 28 | 135 | 11.3 | 11.3 | 0.00 | 0.00 | 0.00 | 73 | 1007.3 |
| 20260905230251 | 28 | 135 | 4.8 | 6.4 | 0.00 | 0.00 | 0.00 | 72 | 1007.1 |
| 20260905224749 | 28 | 135 | 0.0 | 4.8 | 0.00 | 0.00 | 0.00 | 71 | 1007.1 |
| 20260905223247 | 28 | 135 | 3.2 | 6.4 | 0.00 | 0.00 | 0.00 | 70 | 1007.2 |
| 20260905221744 | 28 | 135 | 0.0 | 8.0 | 0.00 | 0.00 | 0.00 | 70 | 1007.5 |
| 20260905220241 | 28 | 135 | 4.8 | 6.4 | 0.00 | 0.00 | 0.00 | 70 | 1007.4 |
| 20260905214739 | 28 | 135 | 3.2 | 6.4 | 0.00 | 0.00 | 0.00 | 69 | 1007.2 |
| 20260905213237 | 28 | 135 | 1.6 | 6.4 | 0.00 | 0.00 | 0.00 | 69 | 1007.2 |
| 20260905211734 | 28 | 135 | 1.6 | 6.4 | 0.00 | 0.00 | 0.00 | 68 | 1007.1 |
| 20260905210231 | 28 | 135 | 0.0 | 6.4 | 0.00 | 0.00 | 0.00 | 68 | 1007.2 |
| 20260905204729 | 28 | 135 | 3.2 | 4.8 | 0.00 | 0.00 | 0.00 | 67 | 1007.2 |
| 20260905203227 | 28 | 135 | 3.2 | 3.2 | 0.00 | 0.00 | 0.00 | 67 | 1007.1 |
| 20260905201724 | 28 | 135 | 3.2 | 6.4 | 0.00 | 0.00 | 0.00 | 67 | 1007.2 |
| 20260905200221 | 28 | 135 | 1.6 | 3.2 | 0.00 | 0.00 | 0.00 | 68 | 1007.1 |
| 20260905194719 | 28 | 135 | 3.2 | 4.8 | 0.00 | 0.00 | 0.00 | 67 | 1007.3 |
| 20260905193217 | 28 | 135 | 1.6 | 4.8 | 0.00 | 0.00 | 0.00 | 67 | 1007.4 |
| 20260905191714 | 28 | 135 | 3.2 | 6.4 | 0.00 | 0.00 | 0.00 | 66 | 1007.2 |
| 20260905190211 | 28 | 135 | 1.6 | 4.8 | 0.00 | 0.00 | 0.00 | 67 | 1007.3 |
| 20260905184709 | 28 | 135 | 3.2 | 14.5 | 0.00 | 0.00 | 0.00 | 66 | 1007.6 |
| 20260905183207 | 28 | 135 | 6.4 | 9.7 | 0.00 | 0.00 | 0.00 | 67 | 1007.9 |
| 20260905181704 | 28 | 38 | 8.0 | 9.7 | 0.00 | 0.00 | 0.00 | 69 | 1008.2 |
| 20260905180201 | 28 | 135 | 8.0 | 11.3 | 0.00 | 0.00 | 0.00 | 69 | 1008.3 |
| 20260905174659 | 28 | 135 | 4.8 | 9.7 | 0.00 | 0.00 | 0.00 | 70 | 1008.4 |
| 20260905173157 | 28 | 135 | 1.6 | 11.3 | 0.00 | 0.00 | 0.00 | 70 | 1008.4 |
| 20260905171654 | 28 | 67 | 0.0 | 6.4 | 0.00 | 0.00 | 0.00 | 70 | 1008.5 |
| 20260905170151 | 28 | 67 | 1.6 | 6.4 | 0.00 | 0.00 | 0.00 | 70 | 1008.4 |
| 20260905164649 | 28 | 67 | 3.2 | 8.0 | 0.00 | 0.00 | 0.00 | 70 | 1008.5 |
| 20260905163147 | 28 | 67 | 4.8 | 6.4 | 0.00 | 0.00 | 0.00 | 70 | 1008.7 |
| 20260905161644 | 28 | 67 | 3.2 | 9.7 | 0.00 | 0.00 | 0.00 | 70 | 1008.7 |
| 20260905160141 | 28 | 67 | 1.6 | 11.3 | 0.00 | 0.00 | 0.00 | 70 | 1008.7 |
| 20260905154639 | 28 | 67 | 3.2 | 6.4 | 0.00 | 0.00 | 0.00 | 69 | 1008.6 |
| 20260905153137 | 28 | 67 | 1.6 | 9.7 | 0.00 | 0.00 | 0.00 | 70 | 1008.5 |
| 20260905151634 | 28 | 67 | 3.2 | 4.8 | 0.00 | 0.00 | 0.00 | 70 | 1008.7 |